Weather History for KAUW - May, 2012

Change the Weather History Date:

Saturday, May 5, 2012

  Actual Average Record
Temperature  
Mean Temperature 55 °F 52 °F  
Max Temperature 64 °F 64 °F 86 °F (1949)
Min Temperature 46 °F 41 °F 26 °F (1967)
Degree Days  
Heating Degree Days 10 13  
Month to date heating degree days 25 68  
Since 1 July heating degree days 6525 7920  
Cooling Degree Days 0 0  
Month to date cooling degree days 6 0  
Year to date cooling degree days 16 2  
Growing Degree Days 5 (Base 50)    
Moisture  
Dew Point 48 °F    
Average Humidity 75    
Maximum Humidity 93    
Minimum Humidity 56    
Precipitation  
Precipitation 0.33 in 0.10 in 1.55 in (1960)
Month to date precipitation 1.71 0.52  
Year to date precipitation 7.70 6.95  
Snow  
Snow 0.00 in 0.00 in 1.30 in (1996)
Month to date snowfall 0.0 0.1  
Since 1 July snowfall 39.9 59.5  
Snow Depth 0.00 in    
Sea Level Pressure  
Sea Level Pressure 30.07 in    
Wind  
Wind Speed 9 mph (East)    
Max Wind Speed 38 mph    
Max Gust Speed 47 mph    
Visibility 8 miles    
Events Rain    
T = Trace of Precipitation, MM = Missing Value Source: NWS Daily Summary

Daily Weather History Graph

Daily Weather History Graph

Search for Another Location

Airport or City:

Trip Planner

Search our weather history database for the weather conditions in past years. The results will help you decide how hot, cold, wet, or windy it might be!

Date:

Astronomy

May. 05, 2012 Rise Set
Actual Time 5:41 AM CDT 8:09 PM CDT
Civil Twilight 5:08 AM CDT 8:42 PM CDT
Nautical Twilight 4:27 AM CDT 9:23 PM CDT
Astronomical Twilight 3:41 AM CDT 10:10 PM CDT
Moon 8:03 PM CDT (5/5) 5:04 AM CDT (5/5)
Length of Visible Light 15h 33m
Length of Day
14h 27m
Full, 100% of the Moon is Illuminated
May 5
Full
May 5
Full
May 12
Last Quarter
May 20
New
May 28
First Quarter

Hourly Weather History & Observations

Time (CDT) Temp. Windchill Dew Point Humidity Pressure Visibility Wind Dir Wind Speed Gust Speed Precip Events Conditions
12:54 AM 50.0 °F - 46.0 °F 86% 30.04 in 10.0 mi East 10.4 mph - 0.00 in Rain Light Rain
1:54 AM 48.0 °F - 46.0 °F 93% 30.04 in 10.0 mi ENE 8.1 mph - 0.03 in Rain Light Rain
2:54 AM 48.0 °F - 45.0 °F 89% 30.05 in 10.0 mi East 8.1 mph - 0.00 in   Overcast
3:28 AM 48.2 °F - 44.6 °F 87% 30.04 in 10.0 mi NNE 3.5 mph - N/A   Overcast
3:54 AM 46.9 °F - 45.0 °F 93% 30.08 in 10.0 mi Calm Calm - 0.00 in   Overcast
4:06 AM 46.4 °F 45.2 °F 44.6 °F 93% 30.07 in 9.0 mi North 3.5 mph - 0.00 in Rain Light Rain
4:26 AM 46.4 °F 42.9 °F 44.6 °F 93% 30.06 in 3.0 mi NE 6.9 mph - 0.04 in Rain Light Rain
4:44 AM 46.4 °F 43.5 °F 44.6 °F 93% 30.06 in 4.0 mi NE 5.8 mph - 0.06 in Rain Rain
4:54 AM 46.0 °F 41.9 °F 44.1 °F 93% 30.08 in 4.0 mi ENE 8.1 mph - 0.06 in Rain Light Rain
5:21 AM 46.4 °F 42.9 °F 44.6 °F 93% 30.07 in 6.0 mi East 6.9 mph - 0.02 in Rain Light Rain
5:54 AM 46.0 °F 41.9 °F 44.1 °F 93% 30.09 in 10.0 mi ENE 8.1 mph - 0.02 in   Overcast
6:54 AM 46.0 °F 41.9 °F 44.1 °F 93% 30.09 in 10.0 mi East 8.1 mph - N/A   Overcast
7:54 AM 46.9 °F - 45.0 °F 93% 30.10 in 10.0 mi East 9.2 mph - N/A   Overcast
8:20 AM 46.4 °F 42.4 °F 46.4 °F 100% 30.09 in 1.8 mi ESE 8.1 mph - 0.00 in Rain Light Rain
8:46 AM 48.2 °F - 46.4 °F 93% 30.09 in 2.0 mi ESE 8.1 mph - 0.02 in Rain Light Rain
8:54 AM 48.0 °F - 46.9 °F 96% 30.11 in 2.5 mi East 9.2 mph - 0.02 in Rain Light Rain
9:04 AM 48.2 °F - 46.4 °F 93% 30.08 in 4.0 mi ESE 9.2 mph - 0.00 in Rain Light Rain
9:40 AM 51.8 °F - 48.2 °F 88% 30.07 in 10.0 mi ESE 8.1 mph - 0.00 in   Overcast
9:54 AM 51.1 °F - 48.9 °F 92% 30.09 in 10.0 mi East 9.2 mph - 0.00 in   Overcast
10:54 AM 53.1 °F - 48.9 °F 86% 30.09 in 10.0 mi ESE 11.5 mph - N/A   Overcast
11:41 AM 55.4 °F - 50.0 °F 82% 30.08 in 10.0 mi ESE 10.4 mph - N/A   Overcast
11:54 AM 55.9 °F - 50.0 °F 80% 30.10 in 10.0 mi SE 12.7 mph - N/A   Overcast
12:54 PM 60.1 °F - 48.9 °F 67% 30.08 in 10.0 mi ESE 12.7 mph - N/A   Overcast
1:54 PM 62.1 °F - 48.0 °F 60% 30.07 in 10.0 mi East 16.1 mph 21.9 mph N/A   Mostly Cloudy
2:54 PM 64.0 °F - 48.9 °F 58% 30.06 in 10.0 mi ESE 12.7 mph 19.6 mph N/A   Overcast
3:54 PM 62.1 °F - 50.0 °F 65% 30.07 in 10.0 mi East 8.1 mph - N/A   Overcast
4:54 PM 62.1 °F - 50.0 °F 65% 30.09 in 10.0 mi East 8.1 mph - N/A   Overcast
5:54 PM 61.0 °F - 48.9 °F 64% 30.11 in 10.0 mi East 4.6 mph - N/A   Overcast
6:30 PM 57.2 °F - 51.8 °F 82% 30.12 in 1.8 mi SSE 5.8 mph - 0.07 in Rain Heavy Rain
6:38 PM 57.2 °F - 51.8 °F 82% 30.11 in 3.0 mi Variable 3.5 mph - 0.08 in Rain Light Rain
6:54 PM 55.9 °F - 52.0 °F 87% 30.12 in 2.5 mi ESE 5.8 mph - 0.14 in Rain Rain
7:02 PM 55.4 °F - 51.8 °F 88% 30.07 in 4.0 mi ESE 5.8 mph - 0.01 in Rain Light Rain
7:54 PM 55.0 °F - 52.0 °F 89% 29.95 in 10.0 mi ENE 17.3 mph 21.9 mph 0.07 in Rain Light Rain
8:34 PM 53.6 °F - 50.0 °F 88% 29.96 in 10.0 mi ENE 10.4 mph - 0.00 in   Mostly Cloudy
8:54 PM 53.1 °F - 48.9 °F 86% 30.00 in 10.0 mi ENE 11.5 mph 19.6 mph 0.00 in   Overcast
9:24 PM 53.6 °F - 48.2 °F 82% 30.01 in 10.0 mi East 6.9 mph - N/A   Scattered Clouds
9:47 PM 53.6 °F - 48.2 °F 82% 30.03 in 10.0 mi ESE 5.8 mph - N/A   Mostly Cloudy
9:54 PM 53.1 °F - 48.0 °F 83% 30.04 in 10.0 mi East 9.2 mph - N/A   Mostly Cloudy
10:21 PM 51.8 °F - 46.4 °F 82% 30.00 in 10.0 mi East 12.7 mph - N/A   Scattered Clouds
10:54 PM 51.1 °F - 46.0 °F 83% 30.07 in 10.0 mi East 4.6 mph - N/A   Clear
11:54 PM 50.0 °F - 46.0 °F 86% 30.06 in 10.0 mi East 6.9 mph - N/A   Clear